| time (UTC) | temp F | wind direction | speed knots | gust knots | rain 1hr in | rain 24hr in | rain mn in | humidity % | barometer mb |
| 20260507005551 | 53 | 302 | 0.0 | 1.7 | 0.00 | 0.43 | 0.39 | 67 | 1011.4 |
| 20260507005012 | 54 | 285 | 0.0 | 1.7 | 0.00 | 0.43 | 0.39 | 67 | 1011.2 |
| 20260507004522 | 54 | 285 | 0.0 | 3.5 | 0.00 | 0.43 | 0.39 | 66 | 1011.2 |
| 20260507004012 | 54 | 285 | 0.9 | 4.3 | 0.00 | 0.43 | 0.39 | 67 | 1011.1 |
| 20260507003526 | 54 | 290 | 0.9 | 4.3 | 0.00 | 0.43 | 0.39 | 66 | 1011.0 |
| 20260507003038 | 54 | 339 | 0.9 | 3.5 | 0.00 | 0.43 | 0.39 | 64 | 1010.9 |
| 20260507002529 | 54 | 338 | 0.9 | 2.6 | 0.00 | 0.43 | 0.39 | 67 | 1010.8 |
| 20260507002039 | 54 | 329 | 0.9 | 4.3 | 0.00 | 0.43 | 0.39 | 65 | 1010.6 |
| 20260507001600 | 54 | 285 | 1.7 | 4.3 | 0.00 | 0.43 | 0.39 | 64 | 1010.6 |
| 20260507001105 | 55 | 296 | 0.9 | 5.2 | 0.00 | 0.43 | 0.39 | 65 | 1010.5 |
| 20260507000508 | 55 | 334 | 1.7 | 6.1 | 0.00 | 0.43 | 0.39 | 62 | 1010.5 |
| 20260507000016 | 55 | 316 | 2.6 | 6.1 | 0.00 | 0.43 | 0.39 | 64 | 1010.6 |
| 20260506235529 | 55 | 326 | 1.7 | 6.1 | 0.00 | 0.43 | 0.39 | 65 | 1010.6 |
| 20260506235025 | 55 | 310 | 1.7 | 4.3 | 0.00 | 0.43 | 0.39 | 64 | 1010.6 |
| 20260506234534 | 55 | 317 | 0.9 | 4.3 | 0.00 | 0.43 | 0.39 | 67 | 1010.6 |
| 20260506234042 | 55 | 346 | 0.9 | 4.3 | 0.00 | 0.43 | 0.39 | 63 | 1010.6 |
| 20260506233537 | 56 | 297 | 1.7 | 6.1 | 0.00 | 0.43 | 0.39 | 65 | 1010.6 |
| 20260506233042 | 56 | 310 | 1.7 | 6.1 | 0.00 | 0.43 | 0.39 | 64 | 1010.8 |
| 20260506232558 | 56 | 323 | 0.9 | 4.3 | 0.00 | 0.43 | 0.39 | 63 | 1010.7 |
| 20260506232007 | 56 | 319 | 1.7 | 7.0 | 0.00 | 0.43 | 0.39 | 63 | 1010.7 |
| 20260506231558 | 56 | 296 | 0.9 | 7.0 | 0.00 | 0.43 | 0.39 | 65 | 1010.9 |
| 20260506231012 | 57 | 290 | 1.7 | 6.1 | 0.00 | 0.43 | 0.39 | 65 | 1010.9 |
| 20260506230527 | 57 | 314 | 1.7 | 6.1 | 0.00 | 0.43 | 0.39 | 64 | 1010.9 |
| 20260506230108 | 57 | 313 | 2.6 | 6.1 | 0.00 | 0.43 | 0.39 | 62 | 1010.6 |
| 20260506225511 | 57 | 279 | 2.6 | 6.1 | 0.00 | 0.43 | 0.39 | 61 | 1011.0 |
| 20260506225059 | 57 | 297 | 2.6 | 5.2 | 0.00 | 0.43 | 0.39 | 61 | 1011.0 |
| 20260506224514 | 58 | 315 | 0.9 | 4.3 | 0.00 | 0.43 | 0.39 | 61 | 1010.9 |
| 20260506224023 | 58 | 315 | 2.6 | 6.1 | 0.00 | 0.43 | 0.39 | 58 | 1010.7 |
| 20260506223537 | 58 | 336 | 1.7 | 6.1 | 0.00 | 0.43 | 0.39 | 63 | 1010.5 |
| 20260506223055 | 58 | 313 | 1.7 | 5.2 | 0.00 | 0.43 | 0.39 | 59 | 1010.5 |
| 20260506222504 | 58 | 290 | 1.7 | 4.3 | 0.00 | 0.43 | 0.39 | 62 | 1010.4 |
| 20260506222016 | 58 | 299 | 0.9 | 4.3 | 0.00 | 0.43 | 0.39 | 61 | 1010.0 |
| 20260506221530 | 59 | 282 | 0.9 | 2.6 | 0.00 | 0.43 | 0.39 | 61 | 1010.0 |
| 20260506221044 | 59 | 304 | 0.9 | 4.3 | 0.00 | 0.43 | 0.39 | 58 | 1010.0 |
| 20260506220554 | 59 | 268 | 2.6 | 4.3 | 0.00 | 0.43 | 0.39 | 58 | 1010.1 |
| 20260506220014 | 59 | 309 | 0.9 | 4.3 | 0.00 | 0.43 | 0.39 | 60 | 1010.0 |
| 20260506215521 | 59 | 291 | 0.9 | 4.3 | 0.00 | 0.43 | 0.39 | 59 | 1010.0 |
| 20260506215031 | 59 | 285 | 0.9 | 4.3 | 0.00 | 0.43 | 0.39 | 61 | 1009.9 |
| 20260506214546 | 59 | 323 | 0.9 | 4.3 | 0.00 | 0.43 | 0.39 | 64 | 1009.8 |
| 20260506214056 | 59 | 276 | 0.0 | 5.2 | 0.00 | 0.43 | 0.39 | 60 | 1009.8 |
| 20260506213514 | 60 | 314 | 1.7 | 5.2 | 0.00 | 0.43 | 0.39 | 57 | 1009.8 |
| 20260506213028 | 60 | 270 | 0.9 | 6.1 | 0.00 | 0.43 | 0.39 | 61 | 1009.8 |
| 20260506212536 | 60 | 275 | 2.6 | 7.8 | 0.00 | 0.43 | 0.39 | 56 | 1009.7 |
| 20260506212048 | 60 | 277 | 4.3 | 7.8 | 0.00 | 0.43 | 0.39 | 54 | 1009.7 |
| 20260506211503 | 60 | 258 | 1.7 | 7.0 | 0.00 | 0.43 | 0.39 | 57 | 1009.7 |
| 20260506211018 | 60 | 355 | 1.7 | 7.0 | 0.00 | 0.43 | 0.39 | 56 | 1009.7 |
| 20260506210530 | 60 | 304 | 3.5 | 6.1 | 0.00 | 0.43 | 0.39 | 58 | 1009.6 |
| 20260506210044 | 60 | 282 | 0.9 | 7.0 | 0.00 | 0.43 | 0.39 | 59 | 1009.4 |
| 20260506205556 | 61 | 309 | 0.9 | 7.0 | 0.00 | 0.43 | 0.39 | 59 | 1009.5 |
| 20260506205012 | 61 | 330 | 1.7 | 8.7 | 0.00 | 0.43 | 0.39 | 56 | 1009.5 |
| 20260506204528 | 61 | 292 | 4.3 | 8.7 | 0.00 | 0.43 | 0.39 | 54 | 1009.4 |
| 20260506204038 | 62 | 319 | 3.5 | 5.2 | 0.00 | 0.43 | 0.39 | 56 | 1009.3 |
| 20260506203545 | 62 | 308 | 0.9 | 9.6 | 0.00 | 0.43 | 0.39 | 63 | 1009.3 |
| 20260506203011 | 62 | 261 | 2.6 | 9.6 | 0.00 | 0.43 | 0.39 | 58 | 1009.3 |
| 20260506202513 | 62 | 258 | 0.9 | 5.2 | 0.00 | 0.43 | 0.39 | 57 | 1009.3 |
| 20260506202029 | 62 | 280 | 1.7 | 6.1 | 0.00 | 0.43 | 0.39 | 58 | 1009.3 |
| 20260506201540 | 62 | 274 | 2.6 | 7.8 | 0.00 | 0.43 | 0.39 | 56 | 1009.3 |
| 20260506201051 | 62 | 280 | 3.5 | 7.8 | 0.00 | 0.43 | 0.39 | 60 | 1009.3 |
| 20260506200603 | 61 | 333 | 1.7 | 6.1 | 0.00 | 0.43 | 0.39 | 62 | 1009.2 |
| 20260506200501 | 61 | 300 | 1.7 | 6.1 | 0.00 | 0.43 | 0.39 | 63 | 1009.3 |
| 20260506200015 | 61 | 295 | 1.7 | 7.0 | 0.00 | 0.43 | 0.39 | 59 | 1009.3 |
| 20260506195525 | 61 | 321 | 2.6 | 7.0 | 0.00 | 0.43 | 0.39 | 61 | 1009.4 |
| 20260506195041 | 61 | 288 | 4.3 | 6.1 | 0.00 | 0.43 | 0.39 | 59 | 1009.3 |
| 20260506194601 | 61 | 322 | 2.6 | 6.1 | 0.00 | 0.43 | 0.39 | 60 | 1009.2 |
| 20260506194005 | 61 | 277 | 1.7 | 6.1 | 0.00 | 0.43 | 0.39 | 59 | 1009.2 |
| 20260506193515 | 61 | 270 | 0.9 | 5.2 | 0.00 | 0.43 | 0.39 | 64 | 1009.2 |
| 20260506193031 | 61 | 307 | 0.9 | 7.0 | 0.00 | 0.43 | 0.39 | 65 | 1009.2 |
| 20260506192542 | 61 | 284 | 3.5 | 7.0 | 0.00 | 0.43 | 0.39 | 65 | 1009.2 |
| 20260506192056 | 61 | 279 | 1.7 | 9.6 | 0.00 | 0.43 | 0.39 | 64 | 1009.3 |
| 20260506191514 | 61 | 285 | 3.5 | 9.6 | 0.00 | 0.43 | 0.39 | 67 | 1009.3 |
| 20260506191026 | 60 | 306 | 0.9 | 7.0 | 0.00 | 0.43 | 0.39 | 67 | 1009.5 |
| 20260506190541 | 60 | 291 | 2.6 | 7.0 | 0.00 | 0.43 | 0.39 | 66 | 1009.4 |
| 20260506190050 | 60 | 302 | 1.7 | 4.3 | 0.00 | 0.43 | 0.39 | 68 | 1009.5 |
| 20260506185505 | 60 | 313 | 1.7 | 5.2 | 0.00 | 0.43 | 0.39 | 68 | 1009.5 |
| 20260506185015 | 60 | 350 | 0.9 | 5.2 | 0.00 | 0.43 | 0.39 | 67 | 1009.5 |
| 20260506184530 | 60 | 288 | 1.7 | 5.2 | 0.00 | 0.43 | 0.39 | 66 | 1009.6 |
| 20260506184040 | 60 | 311 | 1.7 | 7.8 | 0.00 | 0.43 | 0.39 | 68 | 1009.6 |
| 20260506183556 | 60 | 349 | 2.6 | 8.7 | 0.00 | 0.43 | 0.39 | 64 | 1009.6 |
| 20260506183006 | 60 | 271 | 1.7 | 7.8 | 0.00 | 0.43 | 0.39 | 64 | 1009.6 |
| 20260506182519 | 60 | 278 | 0.9 | 7.8 | 0.00 | 0.43 | 0.39 | 69 | 1009.5 |
| 20260506182031 | 60 | 269 | 1.7 | 7.8 | 0.00 | 0.43 | 0.39 | 71 | 1009.6 |
| 20260506181553 | 59 | 322 | 3.5 | 7.8 | 0.00 | 0.43 | 0.39 | 67 | 1009.6 |
| 20260506181056 | 59 | 310 | 2.6 | 7.0 | 0.00 | 0.43 | 0.39 | 70 | 1009.7 |
| 20260506180517 | 59 | 279 | 0.9 | 5.2 | 0.00 | 0.43 | 0.39 | 70 | 1009.6 |
| 20260506180024 | 59 | 313 | 1.7 | 6.1 | 0.00 | 0.43 | 0.39 | 70 | 1009.4 |
| 20260506175542 | 59 | 313 | 2.6 | 6.1 | 0.00 | 0.43 | 0.39 | 71 | 1009.4 |
| 20260506175047 | 58 | 314 | 1.7 | 7.8 | 0.00 | 0.43 | 0.39 | 71 | 1009.3 |
| 20260506174504 | 58 | 273 | 0.9 | 4.3 | 0.00 | 0.43 | 0.39 | 73 | 1009.2 |
| 20260506174020 | 58 | 306 | 0.9 | 7.0 | 0.00 | 0.43 | 0.39 | 74 | 1009.3 |
| 20260506173532 | 58 | 323 | 2.6 | 7.0 | 0.00 | 0.43 | 0.39 | 76 | 1009.4 |
| 20260506173052 | 58 | 279 | 1.7 | 4.3 | 0.00 | 0.43 | 0.39 | 73 | 1009.6 |
| 20260506172555 | 58 | 342 | 0.9 | 4.3 | 0.00 | 0.43 | 0.39 | 75 | 1009.8 |
| 20260506172011 | 57 | 333 | 0.9 | 7.0 | 0.00 | 0.43 | 0.39 | 76 | 1009.8 |
| 20260506171535 | 57 | 300 | 3.5 | 8.7 | 0.00 | 0.43 | 0.39 | 75 | 1009.8 |
| 20260506171036 | 57 | 298 | 4.3 | 9.6 | 0.00 | 0.43 | 0.39 | 77 | 1009.8 |
| 20260506170545 | 57 | 355 | 2.6 | 9.6 | 0.00 | 0.43 | 0.39 | 78 | 1009.7 |
| 20260506170100 | 57 | 320 | 0.9 | 4.3 | 0.00 | 0.43 | 0.39 | 82 | 1009.5 |
| 20260506170002 | 57 | 331 | 0.9 | 4.3 | 0.00 | 0.43 | 0.39 | 81 | 1009.4 |
| 20260506165514 | 57 | 302 | 0.0 | 4.3 | 0.00 | 0.43 | 0.39 | 82 | 1009.3 |
| 20260506165027 | 56 | 281 | 0.9 | 5.2 | 0.00 | 0.43 | 0.39 | 82 | 1009.1 |
| 20260506164546 | 56 | 15 | 1.7 | 5.2 | 0.00 | 0.43 | 0.39 | 80 | 1009.3 |
| 20260506164051 | 56 | 315 | 0.0 | 4.3 | 0.00 | 0.43 | 0.39 | 80 | 1009.1 |
| 20260506163505 | 55 | 292 | 0.9 | 6.1 | 0.00 | 0.43 | 0.39 | 82 | 1009.4 |
| 20260506163019 | 55 | 310 | 0.0 | 6.1 | 0.00 | 0.43 | 0.39 | 84 | 1009.4 |
| 20260506162532 | 55 | 324 | 0.9 | 8.7 | 0.00 | 0.43 | 0.39 | 83 | 1009.5 |
| 20260506162044 | 55 | 262 | 1.7 | 8.7 | 0.00 | 0.43 | 0.39 | 85 | 1009.6 |
| 20260506161603 | 54 | 264 | 1.7 | 7.0 | 0.00 | 0.43 | 0.39 | 85 | 1009.7 |
| 20260506161010 | 54 | 319 | 1.7 | 7.0 | 0.00 | 0.43 | 0.39 | 84 | 1009.5 |
| 20260506160521 | 54 | 322 | 0.9 | 6.1 | 0.00 | 0.43 | 0.39 | 85 | 1009.4 |
| 20260506160043 | 54 | 309 | 0.9 | 6.1 | 0.00 | 0.43 | 0.39 | 85 | 1009.1 |
| 20260506155543 | 54 | 285 | 0.0 | 6.1 | 0.00 | 0.43 | 0.39 | 87 | 1009.2 |
| 20260506155057 | 54 | 283 | 1.7 | 6.1 | 0.00 | 0.43 | 0.39 | 87 | 1009.2 |
| 20260506154510 | 53 | 344 | 0.9 | 7.0 | 0.00 | 0.43 | 0.39 | 90 | 1009.1 |
| 20260506154026 | 53 | 344 | 3.5 | 7.0 | 0.00 | 0.43 | 0.39 | 87 | 1009.0 |
| 20260506153536 | 52 | 312 | 2.6 | 7.0 | 0.00 | 0.43 | 0.39 | 89 | 1009.0 |
| 20260506153049 | 52 | 301 | 1.7 | 6.1 | 0.00 | 0.43 | 0.39 | 89 | 1009.1 |
| 20260506152508 | 52 | 270 | 1.7 | 7.0 | 0.00 | 0.43 | 0.39 | 91 | 1009.0 |
| 20260506152017 | 52 | 329 | 2.6 | 7.0 | 0.00 | 0.43 | 0.39 | 92 | 1009.0 |
| 20260506151536 | 52 | 279 | 0.9 | 3.5 | 0.00 | 0.43 | 0.39 | 92 | 1008.9 |
| 20260506151043 | 52 | 318 | 0.9 | 3.5 | 0.00 | 0.43 | 0.39 | 92 | 1008.8 |
| 20260506150557 | 52 | 338 | 0.9 | 4.3 | 0.00 | 0.43 | 0.39 | 93 | 1008.7 |
| 20260506150022 | 51 | 284 | 1.7 | 4.3 | 0.00 | 0.43 | 0.39 | 93 | 1008.4 |
| 20260506145526 | 51 | 310 | 0.9 | 2.6 | 0.00 | 0.43 | 0.39 | 94 | 1008.4 |
| 20260506145035 | 51 | 306 | 0.9 | 3.5 | 0.00 | 0.43 | 0.39 | 95 | 1008.4 |
| 20260506144550 | 50 | 24 | 0.0 | 3.5 | 0.00 | 0.43 | 0.39 | 94 | 1008.1 |
| 20260506144005 | 50 | 286 | 0.0 | 3.5 | 0.00 | 0.43 | 0.39 | 95 | 1008.2 |
| 20260506143520 | 50 | 309 | 0.9 | 3.5 | 0.00 | 0.43 | 0.39 | 96 | 1008.1 |
| 20260506143038 | 49 | 348 | 0.9 | 3.5 | 0.00 | 0.43 | 0.39 | 95 | 1008.2 |
| 20260506142537 | 49 | 346 | 0.0 | 1.7 | 0.00 | 0.43 | 0.39 | 95 | 1008.1 |
| 20260506142049 | 49 | 346 | 0.0 | 3.5 | 0.00 | 0.43 | 0.39 | 95 | 1008.1 |
| 20260506141539 | 49 | 292 | 0.0 | 1.7 | 0.00 | 0.43 | 0.39 | 95 | 1008.1 |
| 20260506141050 | 49 | 292 | 0.0 | 4.3 | 0.00 | 0.43 | 0.39 | 94 | 1008.1 |
| 20260506140505 | 49 | 318 | 1.7 | 4.3 | 0.00 | 0.43 | 0.39 | 95 | 1007.5 |
| 20260506140106 | 49 | 317 | 0.9 | 3.5 | 0.00 | 0.43 | 0.39 | 95 | 1007.6 |
| 20260506135507 | 49 | 321 | 0.9 | 3.5 | 0.00 | 0.43 | 0.39 | 95 | 1007.5 |
| 20260506135018 | 48 | 317 | 1.7 | 3.5 | 0.01 | 0.43 | 0.39 | 95 | 1007.6 |
| 20260506134529 | 49 | 336 | 0.9 | 2.6 | 0.01 | 0.43 | 0.39 | 95 | 1007.7 |
| 20260506134011 | 48 | 348 | 0.0 | 3.5 | 0.01 | 0.43 | 0.39 | 95 | 1007.3 |
| 20260506133526 | 48 | 348 | 0.0 | 3.5 | 0.01 | 0.43 | 0.39 | 95 | 1007.2 |
| 20260506133040 | 48 | 350 | 0.0 | 5.2 | 0.01 | 0.43 | 0.39 | 95 | 1007.2 |
| 20260506132516 | 48 | 325 | 1.7 | 5.2 | 0.01 | 0.43 | 0.39 | 95 | 1007.3 |
| 20260506132016 | 48 | 335 | 0.9 | 1.7 | 0.01 | 0.43 | 0.39 | 95 | 1007.3 |
| 20260506131522 | 48 | 315 | 0.9 | 1.7 | 0.01 | 0.43 | 0.39 | 95 | 1007.3 |
| 20260506131028 | 48 | 326 | 0.9 | 5.2 | 0.01 | 0.43 | 0.39 | 95 | 1007.2 |
| 20260506130523 | 48 | 282 | 0.0 | 3.5 | 0.02 | 0.43 | 0.39 | 95 | 1007.4 |
| 20260506130030 | 48 | 350 | 1.7 | 3.5 | 0.02 | 0.43 | 0.39 | 95 | 1007.3 |
| 20260506125543 | 48 | 316 | 0.9 | 1.7 | 0.02 | 0.43 | 0.39 | 95 | 1007.1 |
| 20260506125052 | 47 | 342 | 0.0 | 3.5 | 0.01 | 0.42 | 0.38 | 95 | 1007.0 |
| 20260506124547 | 47 | 300 | 0.9 | 4.3 | 0.01 | 0.42 | 0.38 | 94 | 1006.9 |
| 20260506124057 | 47 | 287 | 0.9 | 2.6 | 0.01 | 0.42 | 0.38 | 94 | 1006.8 |
| 20260506123513 | 48 | 360 | 0.9 | 3.5 | 0.01 | 0.42 | 0.38 | 94 | 1006.6 |
| 20260506123004 | 48 | 338 | 0.9 | 7.0 | 0.01 | 0.42 | 0.38 | 94 | 1006.5 |
| 20260506122518 | 48 | 318 | 0.9 | 7.0 | 0.01 | 0.42 | 0.38 | 94 | 1006.7 |
| 20260506122027 | 48 | 317 | 1.7 | 5.2 | 0.01 | 0.42 | 0.38 | 94 | 1006.6 |
| 20260506121527 | 48 | 333 | 0.9 | 2.6 | 0.01 | 0.42 | 0.38 | 94 | 1006.5 |
| 20260506121033 | 48 | 321 | 1.7 | 3.5 | 0.02 | 0.42 | 0.38 | 94 | 1006.5 |
| 20260506120547 | 48 | 316 | 1.7 | 2.6 | 0.01 | 0.41 | 0.38 | 94 | 1006.1 |
| 20260506120101 | 48 | 322 | 0.9 | 1.7 | 0.01 | 0.41 | 0.37 | 94 | 1005.8 |
| 20260506115549 | 48 | 323 | 0.9 | 1.7 | 0.01 | 0.41 | 0.37 | 94 | 1005.8 |
| 20260506115057 | 48 | 313 | 0.0 | 1.7 | 0.01 | 0.41 | 0.37 | 94 | 1005.8 |
| 20260506114519 | 48 | 292 | 0.0 | 1.7 | 0.01 | 0.41 | 0.37 | 94 | 1005.6 |
| 20260506114003 | 48 | 326 | 0.0 | 1.7 | 0.01 | 0.41 | 0.37 | 94 | 1005.7 |
| 20260506113517 | 48 | 326 | 0.0 | 3.5 | 0.01 | 0.41 | 0.37 | 94 | 1005.5 |
| 20260506113029 | 48 | 5 | 0.9 | 4.3 | 0.02 | 0.41 | 0.37 | 94 | 1005.4 |
| 20260506112533 | 49 | 322 | 1.7 | 4.3 | 0.02 | 0.41 | 0.37 | 94 | 1005.2 |
| 20260506112025 | 49 | 350 | 0.0 | 2.6 | 0.02 | 0.41 | 0.37 | 94 | 1005.3 |
| 20260506111541 | 49 | 350 | 0.9 | 3.5 | 0.02 | 0.41 | 0.37 | 94 | 1005.4 |
| 20260506111051 | 49 | 350 | 0.9 | 1.7 | 0.01 | 0.40 | 0.36 | 94 | 1005.4 |
| 20260506110543 | 49 | 350 | 0.9 | 1.7 | 0.01 | 0.40 | 0.36 | 93 | 1005.2 |
| 20260506110002 | 49 | 350 | 0.9 | 4.3 | 0.01 | 0.40 | 0.36 | 93 | 1005.2 |
| 20260506105515 | 49 | 350 | 0.9 | 4.3 | 0.01 | 0.40 | 0.36 | 93 | 1005.0 |
| 20260506105005 | 49 | 340 | 0.9 | 3.5 | 0.01 | 0.40 | 0.36 | 93 | 1004.8 |
| 20260506104516 | 49 | 15 | 0.9 | 4.3 | 0.01 | 0.40 | 0.36 | 93 | 1004.8 |
| 20260506104030 | 50 | 346 | 0.9 | 4.3 | 0.02 | 0.40 | 0.36 | 93 | 1004.7 |
| 20260506103541 | 50 | 330 | 1.7 | 3.5 | 0.02 | 0.40 | 0.36 | 93 | 1004.6 |
| 20260506103029 | 50 | 331 | 0.9 | 3.5 | 0.02 | 0.39 | 0.35 | 93 | 1004.7 |
| 20260506102540 | 50 | 342 | 0.0 | 6.1 | 0.04 | 0.39 | 0.35 | 93 | 1004.2 |
| 20260506102054 | 50 | 317 | 0.9 | 6.1 | 0.05 | 0.39 | 0.35 | 93 | 1004.4 |
| 20260506101552 | 51 | 315 | 1.7 | 4.3 | 0.07 | 0.39 | 0.35 | 93 | 1004.4 |
| 20260506101055 | 51 | 335 | 1.7 | 4.3 | 0.08 | 0.39 | 0.35 | 92 | 1004.2 |
| 20260506100511 | 51 | 344 | 1.7 | 3.5 | 0.09 | 0.39 | 0.35 | 92 | 1003.8 |
| 20260506100008 | 52 | 335 | 0.0 | 1.7 | 0.09 | 0.39 | 0.35 | 92 | 1003.9 |
| 20260506095507 | 52 | 335 | 0.9 | 1.7 | 0.09 | 0.39 | 0.35 | 92 | 1004.1 |
| 20260506095022 | 52 | 335 | 0.9 | 3.5 | 0.09 | 0.39 | 0.35 | 92 | 1003.9 |
| 20260506094531 | 53 | 341 | 1.7 | 5.2 | 0.09 | 0.39 | 0.35 | 91 | 1003.9 |
| 20260506094023 | 53 | 328 | 0.9 | 5.2 | 0.09 | 0.38 | 0.34 | 90 | 1003.9 |
| 20260506093535 | 55 | 336 | 2.6 | 5.2 | 0.09 | 0.37 | 0.34 | 90 | 1003.9 |
| 20260506093053 | 56 | 320 | 2.6 | 7.0 | 0.10 | 0.37 | 0.33 | 91 | 1003.8 |
| 20260506092540 | 57 | 272 | 3.5 | 7.8 | 0.08 | 0.35 | 0.31 | 91 | 1003.7 |
| 20260506092047 | 58 | 315 | 4.3 | 7.8 | 0.07 | 0.33 | 0.30 | 94 | 1003.9 |
| 20260506091557 | 58 | 240 | 3.5 | 7.8 | 0.07 | 0.32 | 0.28 | 94 | 1003.7 |
| 20260506091014 | 58 | 268 | 1.7 | 7.0 | 0.06 | 0.31 | 0.27 | 94 | 1003.7 |
| 20260506090602 | 58 | 258 | 2.6 | 7.8 | 0.06 | 0.30 | 0.26 | 94 | 1003.6 |
| 20260506090013 | 58 | 155 | 1.7 | 7.8 | 0.06 | 0.30 | 0.26 | 94 | 1003.6 |
| 20260506085525 | 58 | 233 | 1.7 | 7.0 | 0.07 | 0.30 | 0.26 | 94 | 1003.6 |
| 20260506085016 | 58 | 267 | 2.6 | 5.2 | 0.08 | 0.30 | 0.26 | 94 | 1003.4 |
| 20260506084529 | 57 | 191 | 0.9 | 7.0 | 0.09 | 0.30 | 0.26 | 94 | 1003.4 |
| 20260506084039 | 58 | 184 | 0.9 | 7.0 | 0.09 | 0.28 | 0.25 | 94 | 1003.4 |
| 20260506083542 | 58 | 150 | 1.7 | 6.1 | 0.08 | 0.28 | 0.24 | 94 | 1003.5 |
| 20260506083042 | 58 | 213 | 0.9 | 6.1 | 0.08 | 0.27 | 0.23 | 94 | 1003.4 |
| 20260506082554 | 57 | 161 | 1.7 | 6.1 | 0.07 | 0.26 | 0.23 | 94 | 1003.4 |
| 20260506082012 | 57 | 98 | 1.7 | 7.0 | 0.07 | 0.25 | 0.21 | 94 | 1003.3 |
| 20260506081555 | 57 | 109 | 0.9 | 7.0 | 0.09 | 0.25 | 0.21 | 94 | 1003.4 |
| 20260506081016 | 58 | 157 | 0.9 | 7.0 | 0.10 | 0.25 | 0.21 | 94 | 1003.3 |
| 20260506080521 | 57 | 211 | 0.9 | 5.2 | 0.09 | 0.24 | 0.20 | 94 | 1003.3 |
| 20260506073013 | 58 | 165 | 0.0 | 4.3 | 0.06 | 0.19 | 0.15 | 94 | 1003.6 |
| 20260506072557 | 58 | 99 | 0.9 | 4.3 | 0.07 | 0.19 | 0.15 | 94 | 1003.6 |
| 20260506072012 | 58 | 145 | 0.0 | 4.3 | 0.06 | 0.18 | 0.14 | 94 | 1003.6 |
| 20260506071524 | 58 | 198 | 1.7 | 5.2 | 0.04 | 0.16 | 0.12 | 93 | 1003.5 |
| 20260506071031 | 58 | 136 | 0.0 | 5.2 | 0.03 | 0.15 | 0.11 | 93 | 1003.6 |
| 20260506070525 | 58 | 167 | 0.9 | 4.3 | 0.03 | 0.15 | 0.11 | 93 | 1003.7 |
| 20260506062033 | 58 | 154 | 0.0 | 1.7 | 0.01 | 0.12 | 0.08 | 93 | 1004.1 |
| 20260506061533 | 58 | 112 | 0.0 | 1.7 | 0.01 | 0.12 | 0.08 | 93 | 1004.2 |
| 20260506061041 | 58 | 112 | 0.0 | 1.7 | 0.01 | 0.12 | 0.08 | 93 | 1004.2 |
| 20260506060557 | 58 | 112 | 0.0 | 0.9 | 0.01 | 0.12 | 0.08 | 93 | 1004.0 |
| 20260506051039 | 59 | 113 | 0.0 | 1.7 | 0.06 | 0.11 | 0.07 | 92 | 1004.7 |
| 20260506050550 | 59 | 111 | 0.0 | 1.7 | 0.06 | 0.11 | 0.07 | 92 | 1004.6 |
| 20260506045006 | 59 | 132 | 0.0 | 1.7 | 0.08 | 0.11 | 0.07 | 92 | 1004.9 |
| 20260506044524 | 60 | 132 | 0.0 | 1.7 | 0.08 | 0.10 | 0.06 | 92 | 1005.1 |
| 20260506044029 | 60 | 190 | 0.0 | 4.3 | 0.07 | 0.09 | 0.05 | 92 | 1005.2 |
| 20260506043521 | 60 | 202 | 0.9 | 4.3 | 0.08 | 0.09 | 0.05 | 92 | 1005.4 |
| 20260506043031 | 60 | 254 | 0.0 | 1.7 | 0.07 | 0.08 | 0.04 | 92 | 1005.5 |
| 20260506042545 | 60 | 254 | 0.0 | 0.9 | 0.06 | 0.07 | 0.03 | 91 | 1005.6 |
| 20260506042052 | 60 | 254 | 0.0 | 0.9 | 0.06 | 0.07 | 0.03 | 91 | 1005.7 |
| 20260506041556 | 60 | 254 | 0.0 | 3.5 | 0.05 | 0.06 | 0.02 | 91 | 1005.9 |
| 20260506041053 | 60 | 254 | 0.0 | 3.5 | 0.04 | 0.05 | 0.01 | 91 | 1005.9 |
| 20260506040517 | 60 | 280 | 0.0 | 1.7 | 0.04 | 0.04 | 0.01 | 91 | 1005.8 |
| 20260506040055 | 60 | 280 | 0.0 | 0.9 | 0.04 | 0.04 | 0.00 | 91 | 1005.8 |
| 20260506035511 | 60 | 280 | 0.0 | 0.9 | 0.03 | 0.03 | 0.03 | 91 | 1005.7 |
| 20260506035018 | 60 | 280 | 0.0 | 1.7 | 0.03 | 0.03 | 0.03 | 91 | 1005.6 |
| 20260506034509 | 60 | 280 | 0.0 | 1.7 | 0.02 | 0.02 | 0.02 | 90 | 1005.7 |
| 20260506034019 | 60 | 280 | 0.0 | 0.0 | 0.02 | 0.02 | 0.02 | 90 | 1005.5 |
| 20260506033537 | 60 | 280 | 0.0 | 0.0 | 0.01 | 0.01 | 0.01 | 90 | 1005.5 |
| 20260506033042 | 61 | 280 | 0.0 | 0.0 | 0.01 | 0.01 | 0.01 | 89 | 1005.5 |
| 20260506032532 | 61 | 280 | 0.0 | 0.0 | 0.01 | 0.01 | 0.01 | 89 | 1005.4 |
| 20260506032040 | 61 | 280 | 0.0 | 0.9 | 0.01 | 0.01 | 0.01 | 89 | 1005.4 |
| 20260506031559 | 61 | 280 | 0.0 | 0.9 | 0.01 | 0.01 | 0.01 | 88 | 1005.3 |
| 20260506031040 | 61 | 280 | 0.0 | 0.0 | 0.01 | 0.01 | 0.01 | 88 | 1005.4 |
| 20260506030600 | 61 | 280 | 0.0 | 0.0 | 0.01 | 0.01 | 0.01 | 88 | 1005.4 |
| 20260506030010 | 61 | 280 | 0.0 | 0.0 | 0.00 | 0.00 | 0.00 | 87 | 1005.6 |
| 20260506025508 | 61 | 280 | 0.0 | 0.0 | 0.00 | 0.00 | 0.00 | 86 | 1005.5 |
| 20260506025010 | 62 | 280 | 0.0 | 0.0 | 0.00 | 0.00 | 0.00 | 86 | 1005.5 |
| 20260506024523 | 62 | 280 | 0.0 | 0.0 | 0.00 | 0.00 | 0.00 | 86 | 1005.5 |
| 20260506024031 | 62 | 280 | 0.0 | 1.7 | 0.00 | 0.00 | 0.00 | 86 | 1005.5 |
| 20260506023519 | 62 | 280 | 0.0 | 1.7 | 0.00 | 0.00 | 0.00 | 85 | 1005.4 |
| 20260506023030 | 62 | 280 | 0.0 | 0.9 | 0.00 | 0.00 | 0.00 | 84 | 1005.4 |
| 20260506022543 | 63 | 280 | 0.0 | 0.9 | 0.00 | 0.00 | 0.00 | 84 | 1005.6 |
| 20260506022030 | 63 | 280 | 0.0 | 1.7 | 0.00 | 0.00 | 0.00 | 82 | 1005.6 |
| 20260506021544 | 63 | 280 | 0.0 | 1.7 | 0.00 | 0.00 | 0.00 | 81 | 1005.6 |
| 20260506021056 | 63 | 264 | 0.0 | 3.5 | 0.00 | 0.00 | 0.00 | 81 | 1005.6 |
| 20260506020513 | 63 | 264 | 0.0 | 4.3 | 0.00 | 0.00 | 0.00 | 80 | 1005.6 |
| 20260506020054 | 63 | 284 | 0.0 | 4.3 | 0.00 | 0.00 | 0.00 | 79 | 1005.5 |
| 20260506015510 | 63 | 277 | 0.0 | 1.7 | 0.00 | 0.00 | 0.00 | 78 | 1005.5 |
| 20260506015022 | 64 | 271 | 0.0 | 4.3 | 0.00 | 0.00 | 0.00 | 78 | 1005.4 |
| 20260506014517 | 64 | 287 | 0.0 | 4.3 | 0.00 | 0.00 | 0.00 | 77 | 1005.4 |
| 20260506014020 | 64 | 292 | 0.9 | 4.3 | 0.00 | 0.00 | 0.00 | 77 | 1005.3 |
| 20260506013534 | 64 | 304 | 0.0 | 4.3 | 0.00 | 0.00 | 0.00 | 76 | 1005.4 |
| 20260506013037 | 64 | 288 | 0.0 | 4.3 | 0.00 | 0.00 | 0.00 | 76 | 1005.3 |
| 20260506012536 | 64 | 270 | 0.9 | 2.6 | 0.00 | 0.00 | 0.00 | 76 | 1005.3 |
| 20260506012045 | 64 | 257 | 0.0 | 4.3 | 0.00 | 0.00 | 0.00 | 75 | 1005.5 |
| 20260506011504 | 65 | 252 | 1.7 | 4.3 | 0.00 | 0.00 | 0.00 | 75 | 1005.4 |
| 20260506011052 | 65 | 247 | 0.0 | 3.5 | 0.00 | 0.00 | 0.00 | 75 | 1005.5 |
| 20260506010510 | 65 | 304 | 0.0 | 4.3 | 0.00 | 0.00 | 0.00 | 74 | 1005.3 |
| 20260506010025 | 65 | 304 | 0.0 | 4.3 | 0.00 | 0.00 | 0.00 | 73 | 1005.3 |